Meteor 1-22 Rocket - Orbit

View from above orbital plane
View from above orbital plane
View from above satellite
View from above satellite

Ground track
Ground track

The orbit data is extracted from the following two-line orbital elements,

1 08294U 75087B   13168.51430036  .00000016  00000-0  22629-5 0  7251
2 08294 081.2169 005.6510 0106215 202.1656 216.5834 14.08413817939238
Epoch (UTC): 17 June 2013 12:20:35
Eccentricity: 0.0106215
inclination: 81.2169°
perigee height: 788 km
apogee height: 942 km
right ascension of ascending node: 5.6510°
argument of perigee: 202.1656°
revolutions per day: 14.08413817
mean anomaly at epoch: 216.5834°
orbit number at epoch: 93923

The dashed part of the orbit path shows where the satellite is in the earth's shadow,  

Developed and maintained by Chris Peat, Heavens-Above GmbH. Please read the updated FAQ before sending e-mail. Imprint. DLR